Volver al catálogo

KINEIS-2C

ActivoComunicacionesSSO
NORAD 62929·PAYLOAD·🇫🇷 France

Lanzado Feb 8, 2025 desde Rocket Lab Launch Complex 1

Loading…

Próximos Pases (próximas 24 horas)

TLE

ActualizadoSource: Space-Track

Época: Sep 14, 2026, 21:23 UTC

1 62929U 25028B   26257.89141275  .00001074  00000-0  17284-3 0  9991
2 62929  98.1158 312.3566 0003414   5.1523 354.9719 14.73565668 85828

Sigue KINEIS-2C en tiempo real con AllMySat

Download on the App Store